Location: Chervonnoye
(48.6000°N, 34.4000°E)
Time: 19:28:02
(UTC+00:00)

RS-44 - Pass Details

Date: 01 December 2021
Orbit: 1175 x 1510 km, 82.5° (Epoch: 19 January)

Event Time Altitude Azimuth Distance (km) Brightness Sun altitude
Rises 02:20:38 0° 356° (N) 4,116 ? -27.7°
Reaches altitude 10° 02:24:21 10° 14° (NNE) 3,185 ? -27.1°
Maximum altitude 02:29:21 19° 57° (ENE) 2,637 ? -26.3°
Drops below altitude 10° 02:34:30 10° 99° (E) 3,317 ? -25.4°
Sets 02:38:26 0° 117° (ESE) 4,347 ? -24.8°
